GEFSNE_prec_meanprecacc_072.txt.gz
Total_Precipitation_Accumulation
1.42 1.42 1.39 1.43 1.36 1.19 1.11 1.09 1.13 0.98 0.88 0.68 0.42 0.23 0.19 0.17 0.19 0.16 0.13 0.10 0.08 0.06 0.04 0.02 0.02 0.03 0.03 0.04 0.04 0.06 0.11 0.22 0.55 0.86 0.73 0.60 0.55 0.62
1.17 1.19 1.25 1.31 1.36 1.33 1.28 1.21 1.18 1.08 0.99 0.82 0.56 0.32 0.25 0.24 0.23 0.19 0.18 0.19 0.13 0.08 0.06 0.04 0.03 0.02 0.02 0.02 0.02 0.01 0.02 0.05 0.26 0.74 0.85 0.73 0.72 0.82
1.03 1.02 1.12 1.16 1.33 1.40 1.35 1.25 1.20 1.12 1.01 0.95 0.71 0.44 0.33 0.30 0.29 0.23 0.20 0.19 0.17 0.12 0.07 0.06 0.05 0.04 0.03 0.02 0.02 0.01 0.01 0.01 0.05 0.18 0.36 0.45 0.62 0.83
0.87 0.86 0.93 0.99 1.13 1.26 1.36 1.27 1.21 1.13 1.10 1.06 0.87 0.64 0.50 0.42 0.34 0.27 0.21 0.19 0.21 0.18 0.13 0.09 0.07 0.07 0.05 0.03 0.02 0.02 0.01 0.01 0.02 0.04 0.12 0.22 0.30 0.44
0.68 0.69 0.73 0.79 0.89 1.02 1.15 1.24 1.21 1.13 1.16 1.17 0.99 0.76 0.58 0.46 0.42 0.36 0.27 0.26 0.21 0.19 0.17 0.14 0.11 0.09 0.07 0.05 0.05 0.04 0.03 0.02 0.02 0.02 0.04 0.08 0.13 0.18
0.48 0.47 0.52 0.56 0.62 0.75 0.88 1.03 1.14 1.18 1.21 1.21 1.10 0.84 0.64 0.49 0.43 0.43 0.43 0.37 0.32 0.23 0.19 0.18 0.16 0.14 0.10 0.09 0.07 0.05 0.04 0.03 0.03 0.02 0.02 0.02 0.04 0.06
0.53 0.45 0.41 0.41 0.46 0.53 0.64 0.83 0.97 1.09 1.17 1.20 1.15 0.98 0.79 0.65 0.51 0.46 0.46 0.49 0.48 0.40 0.34 0.28 0.27 0.23 0.19 0.13 0.09 0.07 0.06 0.06 0.05 0.05 0.04 0.04 0.04 0.05
0.56 0.57 0.56 0.50 0.39 0.31 0.31 0.43 0.60 0.79 0.96 1.05 1.09 0.99 0.83 0.72 0.66 0.57 0.50 0.45 0.46 0.46 0.47 0.46 0.42 0.37 0.34 0.29 0.25 0.20 0.16 0.12 0.11 0.10 0.09 0.08 0.08 0.08
0.52 0.52 0.58 0.57 0.60 0.49 0.38 0.32 0.34 0.44 0.61 0.77 0.83 0.82 0.87 0.77 0.63 0.51 0.46 0.43 0.40 0.38 0.40 0.41 0.41 0.40 0.38 0.38 0.38 0.35 0.32 0.28 0.24 0.21 0.17 0.15 0.13 0.12
0.58 0.57 0.61 0.61 0.60 0.71 0.68 0.59 0.50 0.48 0.57 0.46 0.49 0.67 0.72 0.69 0.61 0.53 0.49 0.43 0.35 0.30 0.30 0.35 0.36 0.35 0.30 0.28 0.29 0.28 0.27 0.26 0.24 0.23 0.22 0.22 0.21 0.20
0.60 0.58 0.62 0.59 0.73 0.78 0.70 0.66 0.62 0.56 0.72 0.74 0.69 0.61 0.55 0.49 0.48 0.51 0.49 0.44 0.40 0.33 0.29 0.28 0.31 0.35 0.35 0.31 0.28 0.26 0.23 0.23 0.23 0.23 0.23 0.24 0.24 0.21
0.66 0.59 0.76 0.71 0.70 0.62 0.51 0.62 0.68 0.62 0.57 0.57 0.57 0.52 0.44 0.39 0.38 0.39 0.47 0.47 0.42 0.40 0.34 0.31 0.32 0.34 0.34 0.32 0.29 0.28 0.26 0.24 0.24 0.24 0.24 0.24 0.22 0.19
0.73 0.73 0.69 0.74 0.56 0.49 0.48 0.53 0.66 0.66 0.62 0.64 0.62 0.53 0.42 0.36 0.34 0.33 0.37 0.41 0.42 0.44 0.35 0.28 0.31 0.31 0.29 0.25 0.24 0.23 0.21 0.19 0.16 0.15 0.15 0.17 0.17 0.15
0.68 0.60 0.56 0.58 0.43 0.37 0.34 0.41 0.51 0.51 0.51 0.58 0.60 0.56 0.45 0.37 0.34 0.30 0.29 0.30 0.30 0.31 0.31 0.28 0.27 0.27 0.25 0.20 0.19 0.18 0.16 0.15 0.14 0.13 0.11 0.12 0.13 0.14
0.49 0.47 0.42 0.36 0.32 0.27 0.27 0.33 0.36 0.44 0.52 0.57 0.53 0.48 0.45 0.41 0.38 0.33 0.27 0.23 0.21 0.20 0.21 0.23 0.27 0.30 0.29 0.23 0.18 0.17 0.16 0.15 0.13 0.13 0.13 0.12 0.11 0.10
0.31 0.23 0.23 0.24 0.27 0.28 0.28 0.28 0.31 0.46 0.59 0.59 0.54 0.48 0.48 0.46 0.43 0.40 0.37 0.34 0.31 0.30 0.27 0.27 0.29 0.34 0.35 0.32 0.27 0.23 0.22 0.21 0.19 0.18 0.17 0.16 0.14 0.12
0.46 0.35 0.27 0.24 0.25 0.26 0.28 0.33 0.42 0.51 0.59 0.53 0.51 0.46 0.44 0.47 0.46 0.44 0.42 0.40 0.38 0.37 0.41 0.42 0.40 0.39 0.39 0.40 0.40 0.37 0.36 0.34 0.32 0.30 0.25 0.20 0.17 0.17
0.47 0.46 0.44 0.44 0.42 0.38 0.35 0.32 0.36 0.41 0.46 0.51 0.51 0.47 0.41 0.41 0.41 0.39 0.38 0.37 0.36 0.36 0.36 0.39 0.43 0.46 0.46 0.44 0.38 0.37 0.42 0.44 0.44 0.40 0.34 0.26 0.20 0.23
0.40 0.41 0.42 0.42 0.40 0.35 0.31 0.29 0.27 0.27 0.33 0.41 0.49 0.51 0.49 0.47 0.44 0.39 0.33 0.30 0.30 0.29 0.28 0.27 0.29 0.33 0.37 0.39 0.39 0.32 0.31 0.37 0.38 0.35 0.32 0.29 0.25 0.27
0.25 0.28 0.28 0.28 0.27 0.25 0.22 0.19 0.19 0.19 0.21 0.24 0.31 0.39 0.49 0.57 0.56 0.50 0.46 0.40 0.35 0.31 0.28 0.24 0.21 0.20 0.22 0.24 0.26 0.26 0.25 0.27 0.29 0.27 0.25 0.24 0.22 0.22
0.09 0.11 0.12 0.12 0.14 0.14 0.12 0.11 0.12 0.14 0.16 0.17 0.20 0.22 0.29 0.38 0.47 0.52 0.54 0.57 0.54 0.49 0.44 0.38 0.31 0.31 0.25 0.24 0.22 0.18 0.18 0.19 0.17 0.15 0.15 0.16 0.16 0.16
0.04 0.05 0.05 0.05 0.07 0.07 0.06 0.06 0.06 0.07 0.09 0.11 0.12 0.14 0.17 0.21 0.27 0.35 0.39 0.41 0.43 0.46 0.48 0.49 0.47 0.45 0.40 0.34 0.29 0.23 0.19 0.18 0.20 0.21 0.17 0.15 0.14 0.14
0.03 0.03 0.03 0.04 0.05 0.06 0.10 0.12 0.09 0.07 0.07 0.09 0.10 0.10 0.11 0.13 0.16 0.21 0.25 0.27 0.31 0.34 0.37 0.39 0.38 0.36 0.34 0.34 0.34 0.33 0.29 0.24 0.22 0.23 0.23 0.28 0.26 0.19

GEFSNE_prec_meanprecacc_078.txt.gz
Total_Precipitation_Accumulation
1.58 1.59 1.54 1.57 1.48 1.29 1.19 1.16 1.19 1.03 0.93 0.75 0.52 0.37 0.35 0.31 0.31 0.28 0.24 0.17 0.14 0.13 0.10 0.06 0.05 0.05 0.06 0.08 0.08 0.09 0.14 0.24 0.56 0.87 0.74 0.61 0.57 0.63
1.37 1.39 1.43 1.46 1.50 1.45 1.37 1.28 1.23 1.13 1.03 0.86 0.62 0.41 0.40 0.41 0.38 0.30 0.29 0.28 0.20 0.15 0.12 0.10 0.08 0.06 0.05 0.05 0.05 0.03 0.03 0.06 0.27 0.75 0.86 0.74 0.73 0.83
1.20 1.20 1.30 1.33 1.46 1.51 1.44 1.33 1.26 1.17 1.05 0.98 0.74 0.49 0.41 0.42 0.43 0.37 0.32 0.28 0.25 0.21 0.16 0.13 0.12 0.11 0.10 0.07 0.06 0.04 0.03 0.02 0.05 0.19 0.37 0.46 0.63 0.84
1.02 1.00 1.08 1.14 1.26 1.38 1.45 1.35 1.28 1.19 1.16 1.12 0.92 0.68 0.55 0.48 0.43 0.38 0.32 0.30 0.30 0.30 0.24 0.20 0.18 0.17 0.16 0.14 0.11 0.08 0.06 0.03 0.03 0.05 0.13 0.24 0.32 0.45
0.81 0.82 0.87 0.92 1.00 1.12 1.24 1.32 1.28 1.20 1.24 1.23 1.06 0.82 0.64 0.53 0.50 0.44 0.36 0.36 0.32 0.29 0.26 0.24 0.21 0.19 0.17 0.16 0.15 0.13 0.09 0.07 0.05 0.05 0.06 0.10 0.16 0.20
0.59 0.57 0.62 0.66 0.70 0.83 0.97 1.11 1.22 1.26 1.29 1.31 1.20 0.95 0.74 0.60 0.54 0.54 0.54 0.47 0.42 0.33 0.29 0.28 0.28 0.25 0.19 0.16 0.13 0.10 0.08 0.08 0.06 0.05 0.05 0.05 0.06 0.08
0.61 0.53 0.48 0.47 0.52 0.59 0.71 0.92 1.05 1.17 1.25 1.29 1.24 1.09 0.90 0.77 0.63 0.58 0.59 0.60 0.60 0.50 0.45 0.38 0.35 0.29 0.24 0.18 0.13 0.10 0.08 0.08 0.07 0.06 0.05 0.05 0.05 0.06
0.63 0.64 0.62 0.55 0.44 0.37 0.39 0.51 0.69 0.88 1.04 1.12 1.16 1.07 0.91 0.81 0.75 0.67 0.58 0.54 0.57 0.56 0.57 0.58 0.51 0.43 0.38 0.32 0.27 0.22 0.17 0.14 0.12 0.11 0.10 0.10 0.10 0.09
0.58 0.60 0.65 0.64 0.66 0.54 0.44 0.39 0.41 0.52 0.68 0.84 0.89 0.88 0.93 0.83 0.70 0.58 0.51 0.47 0.45 0.44 0.46 0.49 0.48 0.45 0.41 0.40 0.40 0.36 0.33 0.28 0.24 0.21 0.18 0.15 0.13 0.13
0.62 0.62 0.68 0.71 0.69 0.77 0.73 0.64 0.56 0.55 0.63 0.51 0.53 0.72 0.77 0.74 0.66 0.59 0.55 0.49 0.41 0.35 0.35 0.40 0.40 0.38 0.32 0.30 0.31 0.29 0.28 0.26 0.24 0.23 0.23 0.22 0.21 0.21
0.64 0.61 0.66 0.66 0.82 0.87 0.76 0.71 0.66 0.61 0.78 0.78 0.72 0.66 0.59 0.53 0.52 0.56 0.55 0.50 0.45 0.38 0.33 0.31 0.33 0.37 0.37 0.32 0.30 0.28 0.24 0.24 0.23 0.23 0.24 0.25 0.24 0.22
0.70 0.62 0.80 0.76 0.76 0.69 0.56 0.66 0.71 0.66 0.61 0.61 0.61 0.57 0.49 0.43 0.43 0.45 0.53 0.52 0.47 0.45 0.38 0.33 0.34 0.36 0.36 0.33 0.30 0.29 0.27 0.25 0.24 0.24 0.25 0.26 0.24 0.20
0.78 0.76 0.72 0.78 0.60 0.55 0.54 0.57 0.70 0.69 0.66 0.70 0.67 0.59 0.47 0.40 0.38 0.39 0.43 0.45 0.45 0.46 0.37 0.30 0.32 0.32 0.29 0.26 0.25 0.24 0.22 0.20 0.17 0.16 0.16 0.18 0.19 0.17
0.72 0.64 0.59 0.61 0.45 0.41 0.39 0.46 0.55 0.56 0.56 0.63 0.65 0.59 0.48 0.40 0.37 0.35 0.34 0.34 0.33 0.33 0.33 0.29 0.29 0.28 0.26 0.20 0.19 0.19 0.17 0.16 0.15 0.13 0.11 0.13 0.13 0.15
0.51 0.50 0.44 0.39 0.35 0.30 0.30 0.37 0.39 0.47 0.58 0.63 0.57 0.51 0.47 0.43 0.40 0.37 0.30 0.26 0.24 0.22 0.22 0.24 0.29 0.32 0.31 0.24 0.19 0.17 0.16 0.15 0.13 0.13 0.13 0.12 0.11 0.10
0.32 0.25 0.25 0.26 0.29 0.31 0.30 0.31 0.34 0.49 0.64 0.64 0.56 0.51 0.51 0.49 0.47 0.43 0.41 0.37 0.34 0.32 0.29 0.28 0.31 0.36 0.37 0.33 0.27 0.23 0.22 0.21 0.19 0.18 0.17 0.16 0.14 0.12
0.47 0.36 0.28 0.26 0.26 0.29 0.31 0.35 0.45 0.55 0.63 0.56 0.53 0.48 0.47 0.50 0.50 0.47 0.46 0.44 0.40 0.39 0.42 0.43 0.41 0.40 0.40 0.40 0.40 0.38 0.36 0.34 0.32 0.31 0.25 0.20 0.17 0.17
0.48 0.47 0.45 0.45 0.44 0.41 0.37 0.35 0.38 0.44 0.49 0.52 0.53 0.49 0.43 0.43 0.44 0.42 0.41 0.39 0.38 0.37 0.37 0.40 0.44 0.47 0.46 0.44 0.38 0.37 0.42 0.44 0.44 0.41 0.34 0.26 0.20 0.23
0.40 0.42 0.43 0.43 0.41 0.37 0.33 0.30 0.27 0.28 0.35 0.42 0.50 0.52 0.51 0.48 0.45 0.40 0.34 0.31 0.30 0.30 0.28 0.27 0.29 0.33 0.37 0.39 0.39 0.32 0.31 0.37 0.38 0.35 0.32 0.29 0.25 0.27
0.26 0.29 0.29 0.29 0.27 0.26 0.23 0.20 0.19 0.20 0.22 0.25 0.32 0.40 0.50 0.58 0.57 0.51 0.46 0.40 0.35 0.31 0.29 0.25 0.21 0.20 0.22 0.24 0.26 0.26 0.25 0.27 0.29 0.27 0.25 0.24 0.22 0.22
0.10 0.12 0.12 0.12 0.14 0.14 0.13 0.12 0.13 0.14 0.16 0.18 0.20 0.23 0.29 0.38 0.47 0.52 0.54 0.57 0.54 0.49 0.44 0.38 0.31 0.31 0.25 0.24 0.22 0.18 0.18 0.19 0.17 0.15 0.15 0.16 0.16 0.16
0.04 0.05 0.06 0.05 0.07 0.08 0.07 0.06 0.06 0.07 0.10 0.11 0.12 0.14 0.17 0.21 0.27 0.35 0.39 0.42 0.44 0.46 0.49 0.49 0.47 0.45 0.40 0.34 0.29 0.23 0.19 0.18 0.20 0.21 0.17 0.15 0.14 0.14
0.03 0.03 0.03 0.04 0.05 0.06 0.11 0.12 0.09 0.07 0.08 0.09 0.10 0.10 0.11 0.13 0.16 0.21 0.25 0.28 0.31 0.34 0.37 0.39 0.38 0.36 0.34 0.34 0.34 0.33 0.29 0.24 0.22 0.23 0.23 0.28 0.26 0.19

GEFSNE_prec_meanprecacc_084.txt.gz
Total_Precipitation_Accumulation
1.65 1.68 1.64 1.68 1.60 1.41 1.32 1.28 1.29 1.10 0.98 0.80 0.57 0.41 0.40 0.37 0.39 0.36 0.33 0.28 0.23 0.19 0.16 0.12 0.09 0.09 0.10 0.12 0.14 0.14 0.18 0.28 0.60 0.91 0.77 0.63 0.59 0.66
1.43 1.45 1.50 1.56 1.61 1.58 1.52 1.41 1.32 1.20 1.09 0.92 0.68 0.46 0.46 0.47 0.45 0.38 0.39 0.40 0.30 0.23 0.18 0.15 0.12 0.09 0.08 0.08 0.07 0.05 0.05 0.09 0.29 0.77 0.88 0.75 0.74 0.84
1.27 1.27 1.38 1.43 1.58 1.64 1.58 1.48 1.40 1.29 1.13 1.04 0.81 0.56 0.48 0.48 0.50 0.44 0.41 0.39 0.35 0.30 0.24 0.20 0.17 0.15 0.13 0.10 0.08 0.06 0.05 0.04 0.07 0.20 0.38 0.47 0.64 0.85
1.10 1.08 1.18 1.27 1.38 1.51 1.59 1.47 1.40 1.30 1.25 1.20 0.99 0.75 0.62 0.57 0.51 0.47 0.41 0.40 0.41 0.41 0.33 0.29 0.27 0.25 0.23 0.20 0.16 0.12 0.10 0.07 0.06 0.07 0.15 0.26 0.34 0.47
0.91 0.92 0.96 1.03 1.12 1.24 1.36 1.45 1.41 1.32 1.33 1.31 1.12 0.88 0.69 0.59 0.57 0.51 0.44 0.47 0.44 0.41 0.39 0.35 0.31 0.29 0.27 0.27 0.26 0.23 0.18 0.15 0.12 0.11 0.11 0.14 0.20 0.23
0.68 0.69 0.74 0.77 0.81 0.94 1.08 1.23 1.36 1.40 1.42 1.40 1.28 1.02 0.81 0.66 0.59 0.61 0.63 0.57 0.53 0.45 0.43 0.41 0.41 0.37 0.32 0.29 0.26 0.25 0.22 0.21 0.18 0.15 0.13 0.12 0.11 0.12
0.67 0.60 0.56 0.57 0.62 0.69 0.80 1.02 1.18 1.30 1.37 1.38 1.33 1.17 0.98 0.84 0.69 0.65 0.68 0.72 0.74 0.65 0.58 0.51 0.45 0.37 0.32 0.26 0.21 0.19 0.17 0.16 0.14 0.12 0.09 0.08 0.08 0.08
0.68 0.68 0.66 0.61 0.50 0.43 0.47 0.60 0.80 0.99 1.13 1.21 1.24 1.15 0.99 0.89 0.84 0.77 0.68 0.65 0.71 0.71 0.70 0.71 0.61 0.51 0.45 0.37 0.32 0.26 0.21 0.18 0.17 0.15 0.14 0.13 0.12 0.12
0.64 0.64 0.69 0.68 0.71 0.58 0.50 0.47 0.50 0.61 0.78 0.93 0.99 0.98 1.03 0.95 0.81 0.70 0.62 0.58 0.56 0.54 0.57 0.63 0.61 0.55 0.49 0.47 0.46 0.40 0.35 0.30 0.27 0.24 0.21 0.18 0.15 0.14
0.68 0.67 0.72 0.75 0.74 0.83 0.79 0.70 0.63 0.63 0.72 0.59 0.63 0.84 0.91 0.88 0.81 0.74 0.69 0.62 0.53 0.46 0.43 0.49 0.50 0.49 0.42 0.38 0.38 0.34 0.31 0.28 0.26 0.24 0.24 0.23 0.23 0.22
0.67 0.65 0.69 0.70 0.89 0.94 0.82 0.80 0.75 0.68 0.86 0.84 0.80 0.76 0.72 0.66 0.65 0.70 0.70 0.63 0.59 0.51 0.41 0.37 0.39 0.43 0.43 0.38 0.36 0.34 0.29 0.27 0.25 0.25 0.25 0.26 0.26 0.23
0.72 0.65 0.83 0.80 0.82 0.75 0.61 0.74 0.80 0.72 0.66 0.66 0.67 0.64 0.57 0.52 0.53 0.55 0.64 0.62 0.56 0.55 0.46 0.39 0.38 0.38 0.38 0.36 0.33 0.32 0.30 0.29 0.27 0.27 0.27 0.27 0.26 0.21
0.81 0.79 0.75 0.81 0.64 0.60 0.59 0.63 0.77 0.76 0.71 0.74 0.72 0.63 0.51 0.46 0.44 0.45 0.50 0.52 0.51 0.51 0.42 0.33 0.34 0.33 0.30 0.27 0.26 0.25 0.24 0.22 0.19 0.18 0.18 0.20 0.20 0.19
0.75 0.67 0.61 0.64 0.48 0.43 0.42 0.51 0.62 0.63 0.61 0.68 0.69 0.63 0.51 0.44 0.41 0.39 0.39 0.39 0.37 0.37 0.36 0.31 0.30 0.30 0.27 0.21 0.20 0.19 0.18 0.17 0.16 0.15 0.13 0.14 0.15 0.16
0.55 0.55 0.47 0.41 0.36 0.32 0.34 0.41 0.44 0.53 0.63 0.67 0.60 0.53 0.49 0.47 0.44 0.41 0.35 0.31 0.28 0.26 0.25 0.26 0.30 0.34 0.32 0.25 0.19 0.18 0.17 0.16 0.14 0.14 0.14 0.13 0.11 0.11
0.34 0.29 0.27 0.28 0.31 0.32 0.32 0.33 0.36 0.52 0.67 0.66 0.59 0.53 0.52 0.51 0.49 0.46 0.44 0.40 0.36 0.35 0.30 0.29 0.32 0.37 0.37 0.33 0.28 0.24 0.23 0.22 0.20 0.19 0.18 0.17 0.15 0.13
0.48 0.37 0.29 0.27 0.28 0.31 0.33 0.38 0.49 0.58 0.65 0.58 0.54 0.49 0.48 0.52 0.51 0.49 0.49 0.47 0.43 0.41 0.44 0.45 0.42 0.41 0.40 0.40 0.41 0.38 0.37 0.35 0.33 0.31 0.26 0.20 0.17 0.17
0.48 0.48 0.46 0.46 0.45 0.42 0.40 0.37 0.39 0.45 0.50 0.54 0.54 0.50 0.45 0.46 0.45 0.44 0.43 0.42 0.41 0.41 0.39 0.41 0.45 0.48 0.47 0.44 0.38 0.37 0.42 0.44 0.44 0.41 0.34 0.26 0.21 0.23
0.41 0.43 0.43 0.43 0.42 0.38 0.34 0.32 0.29 0.29 0.36 0.43 0.50 0.53 0.52 0.49 0.46 0.42 0.37 0.35 0.33 0.32 0.31 0.30 0.32 0.35 0.39 0.40 0.40 0.32 0.31 0.37 0.38 0.35 0.32 0.29 0.25 0.27
0.26 0.30 0.29 0.29 0.28 0.26 0.23 0.20 0.19 0.21 0.22 0.25 0.32 0.40 0.51 0.58 0.58 0.51 0.47 0.42 0.38 0.34 0.32 0.27 0.24 0.22 0.23 0.25 0.26 0.26 0.26 0.27 0.29 0.27 0.25 0.24 0.22 0.22
0.10 0.12 0.12 0.13 0.15 0.14 0.13 0.12 0.13 0.15 0.17 0.18 0.20 0.23 0.29 0.39 0.49 0.53 0.54 0.58 0.55 0.51 0.47 0.40 0.34 0.32 0.26 0.24 0.22 0.18 0.18 0.19 0.17 0.15 0.15 0.16 0.16 0.16
0.04 0.05 0.06 0.06 0.07 0.08 0.07 0.06 0.06 0.08 0.10 0.11 0.12 0.14 0.17 0.21 0.28 0.36 0.40 0.42 0.45 0.47 0.50 0.51 0.49 0.46 0.40 0.35 0.29 0.23 0.19 0.18 0.20 0.21 0.17 0.15 0.14 0.14
0.03 0.04 0.04 0.04 0.05 0.07 0.11 0.12 0.09 0.07 0.08 0.09 0.10 0.11 0.11 0.13 0.16 0.21 0.25 0.28 0.32 0.35 0.38 0.40 0.39 0.36 0.35 0.34 0.34 0.33 0.29 0.24 0.22 0.23 0.23 0.28 0.26 0.19

GEFSNE_prec_meanprecacc_090.txt.gz
Total_Precipitation_Accumulation
1.71 1.74 1.72 1.78 1.69 1.51 1.44 1.43 1.46 1.26 1.11 0.90 0.64 0.47 0.46 0.42 0.45 0.40 0.36 0.33 0.28 0.24 0.21 0.17 0.13 0.12 0.13 0.16 0.18 0.19 0.23 0.32 0.64 0.94 0.81 0.67 0.62 0.68
1.48 1.51 1.56 1.62 1.69 1.66 1.61 1.52 1.44 1.32 1.20 1.02 0.77 0.53 0.52 0.52 0.50 0.42 0.43 0.46 0.37 0.29 0.24 0.20 0.16 0.12 0.11 0.10 0.10 0.08 0.08 0.11 0.31 0.79 0.90 0.78 0.77 0.87
1.31 1.32 1.43 1.47 1.64 1.70 1.65 1.56 1.50 1.40 1.23 1.11 0.87 0.63 0.55 0.55 0.56 0.51 0.47 0.45 0.41 0.34 0.29 0.26 0.22 0.19 0.17 0.13 0.11 0.09 0.07 0.06 0.08 0.22 0.40 0.49 0.66 0.88
1.13 1.13 1.23 1.32 1.43 1.56 1.64 1.55 1.50 1.43 1.38 1.30 1.07 0.81 0.70 0.65 0.58 0.53 0.48 0.47 0.48 0.46 0.39 0.34 0.32 0.30 0.27 0.23 0.19 0.14 0.11 0.08 0.07 0.08 0.17 0.28 0.37 0.50
0.96 0.97 1.02 1.08 1.17 1.30 1.43 1.52 1.49 1.42 1.47 1.44 1.23 0.96 0.76 0.67 0.64 0.57 0.50 0.55 0.52 0.50 0.47 0.41 0.37 0.34 0.33 0.32 0.31 0.28 0.21 0.16 0.14 0.13 0.13 0.16 0.22 0.26
0.75 0.75 0.80 0.82 0.87 1.00 1.15 1.29 1.43 1.50 1.54 1.54 1.40 1.12 0.88 0.74 0.68 0.69 0.70 0.63 0.61 0.55 0.55 0.53 0.52 0.49 0.44 0.40 0.36 0.33 0.30 0.28 0.24 0.21 0.20 0.18 0.16 0.17
0.76 0.67 0.62 0.63 0.68 0.77 0.88 1.11 1.27 1.41 1.51 1.53 1.45 1.28 1.07 0.92 0.79 0.73 0.75 0.80 0.82 0.74 0.71 0.65 0.60 0.53 0.46 0.37 0.31 0.27 0.24 0.22 0.20 0.18 0.16 0.14 0.13 0.13
0.73 0.73 0.71 0.67 0.57 0.51 0.54 0.69 0.91 1.12 1.27 1.35 1.37 1.26 1.09 0.98 0.93 0.87 0.77 0.76 0.84 0.82 0.82 0.87 0.76 0.66 0.59 0.48 0.41 0.33 0.27 0.23 0.22 0.21 0.19 0.20 0.19 0.17
0.69 0.69 0.74 0.74 0.77 0.65 0.56 0.53 0.58 0.74 0.94 1.09 1.13 1.10 1.13 1.04 0.90 0.80 0.72 0.68 0.67 0.66 0.69 0.79 0.77 0.69 0.61 0.57 0.55 0.47 0.40 0.34 0.31 0.28 0.25 0.22 0.20 0.18
0.74 0.74 0.77 0.80 0.79 0.89 0.85 0.77 0.72 0.73 0.83 0.73 0.78 1.00 1.05 1.01 0.94 0.88 0.84 0.75 0.65 0.57 0.54 0.63 0.65 0.63 0.54 0.48 0.47 0.41 0.36 0.31 0.29 0.27 0.27 0.26 0.26 0.25
0.74 0.72 0.77 0.76 0.95 1.00 0.90 0.89 0.84 0.80 0.96 0.95 0.90 0.88 0.87 0.83 0.82 0.84 0.86 0.80 0.74 0.64 0.53 0.49 0.52 0.56 0.55 0.48 0.44 0.41 0.35 0.31 0.28 0.27 0.27 0.28 0.28 0.25
0.80 0.74 0.91 0.86 0.87 0.80 0.70 0.86 0.88 0.79 0.73 0.72 0.72 0.72 0.67 0.66 0.68 0.70 0.77 0.76 0.70 0.69 0.58 0.50 0.49 0.50 0.50 0.46 0.40 0.38 0.36 0.35 0.32 0.30 0.30 0.30 0.28 0.24
0.84 0.83 0.79 0.85 0.68 0.64 0.65 0.72 0.85 0.82 0.77 0.79 0.77 0.69 0.60 0.56 0.54 0.55 0.62 0.63 0.64 0.65 0.53 0.43 0.44 0.43 0.38 0.35 0.33 0.30 0.27 0.26 0.24 0.23 0.22 0.23 0.23 0.21
0.77 0.68 0.64 0.66 0.50 0.47 0.47 0.57 0.68 0.68 0.65 0.72 0.73 0.67 0.56 0.50 0.47 0.45 0.47 0.49 0.48 0.49 0.46 0.39 0.39 0.38 0.33 0.26 0.25 0.23 0.21 0.19 0.19 0.18 0.16 0.17 0.17 0.19
0.57 0.57 0.49 0.43 0.39 0.34 0.37 0.46 0.49 0.58 0.66 0.71 0.65 0.57 0.52 0.50 0.48 0.47 0.42 0.39 0.37 0.35 0.33 0.32 0.36 0.39 0.36 0.28 0.22 0.21 0.19 0.17 0.15 0.16 0.17 0.15 0.13 0.13
0.36 0.30 0.29 0.30 0.34 0.35 0.35 0.36 0.41 0.56 0.70 0.70 0.63 0.56 0.56 0.55 0.54 0.52 0.50 0.46 0.42 0.41 0.37 0.34 0.36 0.39 0.39 0.36 0.30 0.26 0.24 0.22 0.20 0.20 0.20 0.19 0.17 0.14
0.50 0.40 0.31 0.29 0.31 0.34 0.36 0.41 0.52 0.60 0.67 0.60 0.57 0.52 0.51 0.55 0.55 0.54 0.54 0.52 0.48 0.45 0.47 0.48 0.47 0.44 0.43 0.42 0.43 0.40 0.38 0.36 0.33 0.31 0.27 0.22 0.19 0.19
0.49 0.49 0.47 0.47 0.47 0.45 0.42 0.39 0.41 0.47 0.53 0.57 0.56 0.51 0.46 0.47 0.47 0.47 0.48 0.47 0.46 0.45 0.42 0.44 0.48 0.51 0.49 0.46 0.40 0.38 0.43 0.46 0.45 0.41 0.34 0.26 0.22 0.24
0.41 0.43 0.44 0.44 0.43 0.40 0.37 0.33 0.30 0.31 0.37 0.45 0.52 0.55 0.53 0.51 0.48 0.44 0.40 0.38 0.36 0.35 0.34 0.32 0.34 0.37 0.41 0.41 0.41 0.34 0.33 0.38 0.39 0.35 0.33 0.29 0.25 0.27
0.26 0.30 0.30 0.29 0.28 0.28 0.25 0.22 0.20 0.22 0.24 0.26 0.33 0.42 0.52 0.60 0.60 0.53 0.48 0.44 0.40 0.36 0.35 0.31 0.26 0.24 0.26 0.27 0.27 0.27 0.27 0.29 0.30 0.28 0.25 0.24 0.22 0.22
0.10 0.12 0.13 0.13 0.15 0.15 0.14 0.14 0.14 0.16 0.18 0.19 0.21 0.23 0.30 0.40 0.50 0.55 0.56 0.59 0.56 0.52 0.49 0.44 0.37 0.36 0.29 0.26 0.24 0.19 0.19 0.20 0.19 0.16 0.15 0.16 0.16 0.16
0.04 0.05 0.06 0.06 0.07 0.08 0.07 0.07 0.07 0.09 0.11 0.12 0.13 0.15 0.18 0.21 0.29 0.37 0.41 0.43 0.46 0.49 0.52 0.53 0.51 0.49 0.42 0.37 0.31 0.24 0.20 0.20 0.22 0.22 0.18 0.16 0.14 0.14
0.03 0.04 0.04 0.05 0.05 0.07 0.11 0.13 0.09 0.07 0.08 0.10 0.11 0.11 0.11 0.13 0.16 0.21 0.26 0.29 0.33 0.36 0.39 0.41 0.40 0.38 0.37 0.36 0.35 0.34 0.29 0.24 0.23 0.23 0.23 0.28 0.26 0.19

GEFSNE_prec_meanprecacc_096.txt.gz
Total_Precipitation_Accumulation
1.81 1.84 1.81 1.88 1.80 1.64 1.57 1.58 1.61 1.39 1.23 1.02 0.79 0.61 0.60 0.57 0.61 0.51 0.44 0.40 0.33 0.27 0.24 0.19 0.15 0.14 0.14 0.18 0.21 0.23 0.27 0.37 0.68 0.98 0.85 0.71 0.65 0.71
1.56 1.60 1.65 1.71 1.79 1.78 1.73 1.63 1.56 1.44 1.32 1.14 0.87 0.63 0.65 0.69 0.70 0.56 0.54 0.56 0.43 0.33 0.28 0.23 0.19 0.14 0.13 0.13 0.12 0.10 0.11 0.15 0.35 0.82 0.93 0.80 0.79 0.89
1.37 1.38 1.50 1.55 1.73 1.79 1.76 1.68 1.62 1.53 1.35 1.22 0.97 0.70 0.64 0.68 0.71 0.64 0.59 0.57 0.49 0.39 0.32 0.29 0.25 0.22 0.19 0.16 0.14 0.11 0.09 0.09 0.11 0.24 0.42 0.51 0.68 0.89
1.17 1.18 1.28 1.37 1.51 1.65 1.73 1.63 1.60 1.54 1.50 1.42 1.17 0.90 0.78 0.74 0.70 0.66 0.58 0.57 0.57 0.53 0.43 0.37 0.35 0.33 0.30 0.25 0.20 0.16 0.13 0.10 0.09 0.10 0.19 0.30 0.39 0.53
1.00 1.00 1.06 1.13 1.23 1.36 1.49 1.58 1.56 1.50 1.57 1.55 1.31 1.04 0.85 0.76 0.74 0.68 0.61 0.65 0.62 0.59 0.55 0.47 0.41 0.38 0.37 0.36 0.35 0.31 0.25 0.21 0.19 0.18 0.18 0.21 0.27 0.31
0.79 0.79 0.85 0.87 0.93 1.06 1.20 1.36 1.49 1.57 1.63 1.64 1.48 1.19 0.95 0.82 0.78 0.80 0.81 0.73 0.71 0.63 0.62 0.61 0.59 0.55 0.49 0.45 0.40 0.37 0.34 0.33 0.31 0.29 0.27 0.25 0.23 0.22
0.81 0.72 0.68 0.68 0.74 0.83 0.94 1.16 1.34 1.48 1.59 1.61 1.53 1.36 1.14 0.99 0.86 0.81 0.85 0.91 0.93 0.83 0.78 0.72 0.68 0.59 0.52 0.44 0.38 0.33 0.29 0.27 0.26 0.24 0.21 0.18 0.16 0.16
0.78 0.79 0.78 0.74 0.62 0.57 0.61 0.75 0.98 1.18 1.34 1.43 1.44 1.33 1.16 1.06 1.02 0.96 0.86 0.86 0.96 0.92 0.89 0.95 0.84 0.74 0.67 0.56 0.50 0.42 0.33 0.29 0.27 0.26 0.24 0.24 0.24 0.22
0.73 0.74 0.80 0.79 0.82 0.70 0.61 0.60 0.65 0.81 1.01 1.18 1.22 1.18 1.22 1.14 1.02 0.92 0.84 0.79 0.78 0.79 0.80 0.90 0.88 0.79 0.70 0.66 0.66 0.57 0.49 0.41 0.37 0.34 0.30 0.26 0.24 0.23
0.81 0.80 0.84 0.86 0.84 0.94 0.90 0.83 0.78 0.79 0.88 0.80 0.87 1.10 1.17 1.15 1.09 1.05 1.01 0.90 0.79 0.72 0.68 0.76 0.78 0.75 0.66 0.59 0.59 0.53 0.46 0.40 0.35 0.33 0.33 0.32 0.30 0.29
0.80 0.79 0.83 0.81 0.99 1.05 0.96 0.95 0.90 0.86 1.02 1.02 0.99 1.01 1.03 1.02 1.00 1.03 1.04 0.97 0.92 0.80 0.65 0.59 0.62 0.67 0.68 0.62 0.58 0.55 0.46 0.41 0.37 0.35 0.35 0.35 0.33 0.28
0.85 0.80 0.95 0.89 0.90 0.84 0.77 0.95 0.95 0.87 0.81 0.79 0.79 0.81 0.80 0.83 0.87 0.87 0.93 0.91 0.84 0.83 0.71 0.60 0.58 0.59 0.61 0.58 0.52 0.49 0.46 0.45 0.42 0.38 0.37 0.35 0.32 0.27
0.88 0.88 0.84 0.89 0.71 0.67 0.69 0.79 0.94 0.91 0.87 0.89 0.84 0.77 0.72 0.71 0.68 0.71 0.78 0.79 0.77 0.76 0.63 0.54 0.54 0.52 0.46 0.43 0.43 0.40 0.36 0.35 0.33 0.30 0.29 0.29 0.28 0.24
0.79 0.70 0.66 0.70 0.53 0.49 0.50 0.61 0.75 0.77 0.75 0.83 0.82 0.76 0.69 0.65 0.60 0.57 0.59 0.61 0.61 0.59 0.56 0.49 0.48 0.46 0.41 0.32 0.32 0.32 0.29 0.27 0.26 0.25 0.22 0.24 0.24 0.23
0.59 0.59 0.50 0.45 0.41 0.37 0.41 0.50 0.55 0.65 0.74 0.78 0.70 0.64 0.63 0.63 0.58 0.55 0.49 0.47 0.46 0.44 0.41 0.40 0.44 0.48 0.45 0.36 0.29 0.27 0.26 0.25 0.22 0.21 0.21 0.19 0.18 0.18
0.38 0.32 0.30 0.32 0.35 0.37 0.38 0.39 0.44 0.60 0.74 0.74 0.67 0.60 0.60 0.60 0.61 0.59 0.56 0.51 0.48 0.48 0.43 0.40 0.43 0.46 0.46 0.41 0.36 0.31 0.29 0.28 0.25 0.24 0.24 0.22 0.20 0.17
0.50 0.41 0.33 0.31 0.33 0.37 0.38 0.43 0.54 0.63 0.69 0.62 0.60 0.55 0.54 0.58 0.60 0.60 0.60 0.57 0.52 0.48 0.50 0.52 0.51 0.50 0.48 0.47 0.47 0.44 0.43 0.40 0.37 0.34 0.29 0.24 0.22 0.21
0.49 0.49 0.48 0.48 0.48 0.47 0.45 0.41 0.42 0.49 0.54 0.58 0.57 0.53 0.49 0.50 0.51 0.51 0.53 0.52 0.50 0.48 0.45 0.46 0.51 0.56 0.54 0.50 0.44 0.42 0.47 0.49 0.47 0.44 0.37 0.28 0.24 0.26
0.41 0.43 0.44 0.44 0.44 0.41 0.39 0.36 0.32 0.32 0.38 0.46 0.54 0.57 0.55 0.52 0.50 0.47 0.43 0.42 0.39 0.37 0.37 0.35 0.37 0.41 0.45 0.46 0.45 0.37 0.36 0.41 0.42 0.38 0.35 0.31 0.27 0.28
0.27 0.30 0.30 0.29 0.28 0.29 0.26 0.24 0.23 0.24 0.26 0.28 0.35 0.44 0.54 0.62 0.62 0.55 0.50 0.47 0.43 0.38 0.36 0.32 0.29 0.27 0.29 0.31 0.31 0.30 0.30 0.33 0.33 0.31 0.28 0.26 0.23 0.24
0.10 0.13 0.13 0.13 0.15 0.15 0.15 0.14 0.15 0.18 0.20 0.21 0.22 0.25 0.32 0.42 0.52 0.56 0.57 0.60 0.59 0.54 0.50 0.45 0.39 0.38 0.31 0.29 0.27 0.23 0.22 0.23 0.23 0.20 0.18 0.18 0.18 0.18
0.05 0.06 0.06 0.06 0.08 0.08 0.08 0.07 0.07 0.10 0.13 0.14 0.14 0.16 0.19 0.22 0.30 0.38 0.42 0.44 0.46 0.50 0.53 0.54 0.52 0.50 0.43 0.38 0.32 0.26 0.23 0.23 0.25 0.27 0.22 0.18 0.16 0.15
0.03 0.04 0.04 0.05 0.05 0.07 0.11 0.13 0.10 0.08 0.09 0.11 0.12 0.13 0.13 0.15 0.17 0.22 0.27 0.30 0.34 0.37 0.40 0.42 0.41 0.39 0.38 0.37 0.37 0.36 0.31 0.27 0.25 0.26 0.25 0.30 0.28 0.20

GEFSNE_prec_meanprecacc_102.txt.gz
Total_Precipitation_Accumulation
1.87 1.91 1.86 1.91 1.82 1.66 1.60 1.62 1.67 1.44 1.27 1.06 0.86 0.73 0.75 0.72 0.75 0.64 0.55 0.50 0.41 0.34 0.30 0.24 0.19 0.18 0.20 0.25 0.28 0.28 0.31 0.40 0.72 1.03 0.89 0.75 0.68 0.74
1.60 1.64 1.68 1.73 1.81 1.80 1.75 1.66 1.60 1.49 1.37 1.19 0.92 0.70 0.78 0.81 0.84 0.69 0.67 0.70 0.54 0.40 0.33 0.28 0.24 0.19 0.16 0.17 0.17 0.15 0.15 0.19 0.38 0.86 0.97 0.84 0.82 0.92
1.39 1.40 1.52 1.57 1.75 1.82 1.79 1.71 1.65 1.57 1.39 1.27 1.02 0.76 0.73 0.79 0.83 0.76 0.74 0.70 0.59 0.47 0.37 0.33 0.29 0.26 0.23 0.20 0.17 0.14 0.12 0.12 0.15 0.28 0.46 0.55 0.70 0.92
1.19 1.20 1.30 1.39 1.53 1.67 1.75 1.65 1.63 1.58 1.55 1.47 1.21 0.95 0.84 0.81 0.79 0.77 0.69 0.67 0.67 0.62 0.51 0.43 0.39 0.36 0.33 0.29 0.25 0.20 0.16 0.13 0.12 0.14 0.23 0.33 0.43 0.56
1.01 1.02 1.08 1.14 1.25 1.38 1.51 1.60 1.58 1.53 1.61 1.58 1.34 1.07 0.90 0.81 0.81 0.78 0.71 0.75 0.71 0.69 0.64 0.55 0.48 0.43 0.40 0.39 0.38 0.35 0.28 0.24 0.21 0.21 0.22 0.26 0.32 0.36
0.81 0.81 0.86 0.88 0.94 1.08 1.23 1.38 1.51 1.60 1.67 1.68 1.51 1.21 0.99 0.89 0.86 0.88 0.90 0.82 0.80 0.74 0.73 0.70 0.68 0.62 0.54 0.49 0.44 0.40 0.37 0.36 0.33 0.31 0.30 0.28 0.26 0.27
0.82 0.74 0.70 0.69 0.75 0.85 0.96 1.18 1.36 1.50 1.61 1.64 1.57 1.40 1.18 1.05 0.93 0.86 0.91 0.99 1.01 0.92 0.88 0.81 0.76 0.65 0.57 0.49 0.43 0.38 0.34 0.31 0.28 0.26 0.24 0.21 0.19 0.19
0.80 0.80 0.81 0.76 0.65 0.59 0.63 0.78 1.00 1.21 1.37 1.45 1.47 1.36 1.20 1.10 1.08 1.03 0.93 0.93 1.03 0.97 0.96 1.03 0.94 0.82 0.72 0.61 0.55 0.47 0.40 0.35 0.32 0.30 0.27 0.27 0.26 0.25
0.76 0.76 0.82 0.82 0.85 0.73 0.65 0.63 0.68 0.85 1.05 1.21 1.24 1.19 1.24 1.17 1.07 0.98 0.90 0.84 0.83 0.85 0.87 0.97 0.97 0.88 0.78 0.74 0.74 0.64 0.55 0.48 0.43 0.40 0.35 0.30 0.27 0.26
0.83 0.82 0.86 0.89 0.88 0.98 0.94 0.85 0.80 0.80 0.90 0.82 0.89 1.12 1.20 1.19 1.15 1.12 1.09 0.96 0.85 0.80 0.78 0.85 0.86 0.83 0.74 0.69 0.71 0.63 0.55 0.47 0.42 0.40 0.38 0.37 0.35 0.34
0.81 0.80 0.84 0.83 1.02 1.09 0.99 0.98 0.92 0.87 1.04 1.03 1.01 1.03 1.07 1.06 1.06 1.10 1.11 1.04 0.99 0.89 0.75 0.68 0.71 0.76 0.78 0.72 0.70 0.68 0.59 0.52 0.47 0.44 0.43 0.42 0.40 0.37
0.88 0.83 0.98 0.93 0.94 0.89 0.81 0.99 0.98 0.89 0.83 0.80 0.80 0.83 0.83 0.87 0.92 0.93 0.99 0.96 0.89 0.90 0.78 0.68 0.67 0.69 0.73 0.69 0.62 0.59 0.57 0.57 0.53 0.48 0.46 0.44 0.41 0.35
0.90 0.90 0.87 0.95 0.77 0.71 0.73 0.84 0.99 0.94 0.89 0.92 0.86 0.79 0.76 0.76 0.73 0.76 0.85 0.87 0.86 0.84 0.71 0.62 0.64 0.61 0.55 0.52 0.53 0.50 0.44 0.43 0.42 0.41 0.39 0.38 0.37 0.31
0.80 0.72 0.68 0.73 0.58 0.54 0.53 0.64 0.79 0.80 0.78 0.87 0.85 0.79 0.74 0.70 0.66 0.64 0.68 0.71 0.72 0.71 0.68 0.60 0.59 0.58 0.52 0.42 0.41 0.42 0.40 0.37 0.34 0.34 0.32 0.35 0.34 0.32
0.60 0.59 0.51 0.46 0.43 0.40 0.43 0.52 0.57 0.68 0.79 0.83 0.74 0.67 0.68 0.70 0.67 0.64 0.59 0.57 0.57 0.55 0.52 0.49 0.52 0.57 0.55 0.46 0.38 0.36 0.37 0.35 0.31 0.30 0.31 0.28 0.25 0.24
0.38 0.32 0.31 0.32 0.36 0.38 0.39 0.40 0.46 0.63 0.78 0.77 0.69 0.63 0.65 0.66 0.68 0.69 0.66 0.60 0.57 0.57 0.51 0.47 0.49 0.52 0.52 0.48 0.43 0.39 0.37 0.36 0.32 0.30 0.30 0.29 0.25 0.22
0.51 0.42 0.33 0.32 0.34 0.37 0.39 0.44 0.55 0.64 0.72 0.64 0.62 0.58 0.57 0.63 0.65 0.66 0.68 0.64 0.60 0.57 0.58 0.59 0.58 0.57 0.55 0.53 0.52 0.50 0.49 0.46 0.43 0.40 0.35 0.30 0.27 0.24
0.50 0.50 0.49 0.49 0.49 0.48 0.46 0.42 0.43 0.49 0.55 0.60 0.59 0.56 0.53 0.53 0.54 0.57 0.59 0.58 0.55 0.53 0.50 0.51 0.57 0.62 0.61 0.57 0.51 0.48 0.53 0.54 0.52 0.49 0.41 0.33 0.29 0.30
0.41 0.44 0.44 0.45 0.45 0.42 0.40 0.37 0.33 0.33 0.39 0.47 0.55 0.59 0.58 0.55 0.53 0.50 0.47 0.45 0.42 0.40 0.39 0.38 0.40 0.44 0.49 0.50 0.49 0.41 0.41 0.46 0.47 0.43 0.40 0.34 0.30 0.32
0.27 0.30 0.30 0.29 0.29 0.29 0.27 0.25 0.23 0.25 0.27 0.29 0.36 0.45 0.56 0.64 0.64 0.57 0.51 0.49 0.46 0.41 0.38 0.34 0.31 0.29 0.31 0.33 0.33 0.32 0.34 0.37 0.38 0.35 0.31 0.30 0.27 0.28
0.10 0.13 0.13 0.13 0.15 0.15 0.15 0.14 0.15 0.18 0.21 0.22 0.23 0.26 0.33 0.44 0.53 0.58 0.59 0.63 0.61 0.56 0.52 0.47 0.41 0.40 0.33 0.30 0.28 0.25 0.24 0.26 0.27 0.24 0.22 0.22 0.22 0.22
0.05 0.06 0.06 0.06 0.08 0.08 0.08 0.07 0.08 0.10 0.13 0.14 0.15 0.17 0.20 0.25 0.32 0.40 0.44 0.46 0.49 0.52 0.54 0.56 0.54 0.51 0.45 0.40 0.34 0.28 0.25 0.25 0.27 0.30 0.25 0.21 0.18 0.17
0.04 0.04 0.04 0.05 0.06 0.07 0.11 0.13 0.10 0.08 0.09 0.12 0.13 0.14 0.14 0.16 0.19 0.24 0.28 0.32 0.35 0.38 0.41 0.43 0.42 0.40 0.39 0.39 0.39 0.38 0.33 0.28 0.27 0.27 0.27 0.33 0.30 0.22

GEFSNE_prec_meanprecacc_108.txt.gz
Total_Precipitation_Accumulation
1.90 1.94 1.90 1.95 1.84 1.68 1.62 1.65 1.70 1.48 1.31 1.12 0.90 0.77 0.80 0.77 0.82 0.70 0.61 0.59 0.52 0.44 0.39 0.31 0.26 0.26 0.28 0.34 0.40 0.41 0.43 0.51 0.80 1.08 0.93 0.77 0.70 0.76
1.63 1.67 1.71 1.76 1.83 1.81 1.76 1.68 1.62 1.52 1.41 1.25 0.97 0.74 0.82 0.87 0.91 0.75 0.71 0.77 0.62 0.49 0.41 0.35 0.31 0.26 0.25 0.26 0.26 0.24 0.25 0.29 0.49 0.94 1.03 0.89 0.86 0.95
1.42 1.43 1.54 1.59 1.77 1.83 1.80 1.73 1.68 1.59 1.42 1.32 1.06 0.82 0.79 0.86 0.90 0.83 0.81 0.77 0.65 0.55 0.46 0.41 0.36 0.33 0.31 0.29 0.27 0.23 0.20 0.19 0.21 0.36 0.53 0.61 0.76 0.97
1.21 1.22 1.32 1.40 1.54 1.68 1.76 1.66 1.65 1.60 1.57 1.50 1.25 1.00 0.90 0.88 0.86 0.83 0.76 0.74 0.73 0.68 0.57 0.49 0.45 0.42 0.39 0.35 0.32 0.28 0.26 0.23 0.20 0.21 0.29 0.40 0.49 0.62
1.03 1.04 1.09 1.16 1.26 1.39 1.52 1.61 1.60 1.55 1.63 1.61 1.38 1.12 0.96 0.89 0.88 0.84 0.77 0.81 0.77 0.74 0.69 0.61 0.54 0.48 0.44 0.43 0.42 0.39 0.34 0.31 0.29 0.29 0.29 0.33 0.38 0.42
0.82 0.82 0.87 0.89 0.95 1.09 1.24 1.38 1.52 1.61 1.69 1.70 1.55 1.26 1.05 0.96 0.92 0.94 0.94 0.86 0.85 0.79 0.78 0.75 0.74 0.70 0.61 0.54 0.48 0.44 0.41 0.39 0.38 0.36 0.34 0.33 0.31 0.31
0.84 0.75 0.70 0.70 0.77 0.86 0.97 1.19 1.36 1.51 1.63 1.67 1.60 1.43 1.22 1.12 0.99 0.90 0.96 1.03 1.05 0.96 0.93 0.86 0.80 0.71 0.63 0.56 0.50 0.43 0.38 0.34 0.31 0.29 0.27 0.25 0.23 0.22
0.81 0.82 0.82 0.77 0.66 0.60 0.64 0.79 1.01 1.22 1.38 1.46 1.49 1.38 1.23 1.15 1.15 1.08 0.98 0.98 1.08 1.01 1.00 1.08 0.98 0.85 0.76 0.65 0.60 0.52 0.45 0.40 0.36 0.33 0.30 0.30 0.30 0.29
0.77 0.78 0.83 0.83 0.85 0.74 0.66 0.64 0.69 0.85 1.06 1.22 1.25 1.21 1.26 1.21 1.14 1.05 0.96 0.90 0.89 0.90 0.93 1.03 1.01 0.92 0.80 0.77 0.78 0.69 0.62 0.54 0.49 0.46 0.40 0.35 0.33 0.32
0.84 0.84 0.88 0.90 0.88 0.98 0.94 0.85 0.80 0.81 0.91 0.83 0.90 1.14 1.22 1.21 1.20 1.20 1.16 1.03 0.91 0.86 0.83 0.89 0.90 0.86 0.77 0.72 0.76 0.69 0.62 0.56 0.51 0.49 0.48 0.46 0.43 0.42
0.81 0.80 0.86 0.85 1.04 1.10 1.00 0.98 0.92 0.88 1.05 1.05 1.03 1.05 1.09 1.09 1.10 1.16 1.18 1.10 1.04 0.93 0.78 0.71 0.73 0.79 0.81 0.76 0.75 0.76 0.69 0.64 0.60 0.57 0.55 0.55 0.53 0.50
0.88 0.83 0.99 0.95 0.96 0.90 0.83 1.01 1.00 0.90 0.84 0.81 0.82 0.84 0.85 0.89 0.95 0.97 1.04 1.01 0.93 0.93 0.81 0.71 0.70 0.72 0.77 0.73 0.67 0.66 0.67 0.70 0.69 0.65 0.63 0.60 0.57 0.51
0.90 0.91 0.88 0.97 0.80 0.74 0.76 0.88 1.02 0.96 0.91 0.94 0.88 0.81 0.78 0.78 0.75 0.78 0.88 0.91 0.89 0.88 0.75 0.67 0.68 0.66 0.60 0.57 0.58 0.55 0.51 0.51 0.53 0.54 0.55 0.55 0.54 0.48
0.81 0.73 0.70 0.76 0.62 0.56 0.55 0.66 0.82 0.83 0.81 0.89 0.87 0.81 0.76 0.72 0.68 0.66 0.70 0.75 0.75 0.76 0.73 0.66 0.65 0.63 0.57 0.47 0.46 0.47 0.46 0.44 0.42 0.43 0.41 0.48 0.48 0.49
0.61 0.60 0.52 0.48 0.46 0.42 0.45 0.54 0.59 0.70 0.82 0.85 0.76 0.69 0.70 0.72 0.70 0.67 0.62 0.61 0.62 0.61 0.57 0.54 0.58 0.63 0.62 0.52 0.44 0.42 0.43 0.43 0.38 0.38 0.39 0.39 0.38 0.39
0.38 0.32 0.31 0.33 0.37 0.39 0.40 0.41 0.47 0.64 0.80 0.79 0.71 0.66 0.67 0.69 0.70 0.71 0.69 0.64 0.62 0.62 0.57 0.53 0.55 0.58 0.58 0.54 0.49 0.44 0.43 0.43 0.41 0.40 0.40 0.40 0.37 0.34
0.51 0.42 0.34 0.33 0.35 0.37 0.39 0.44 0.56 0.65 0.72 0.65 0.64 0.60 0.60 0.67 0.70 0.71 0.72 0.69 0.64 0.62 0.66 0.66 0.65 0.63 0.60 0.59 0.58 0.54 0.53 0.51 0.50 0.49 0.45 0.42 0.39 0.37
0.50 0.50 0.49 0.49 0.49 0.48 0.46 0.42 0.43 0.50 0.56 0.60 0.60 0.58 0.56 0.56 0.57 0.60 0.63 0.62 0.59 0.57 0.55 0.58 0.64 0.70 0.68 0.63 0.56 0.52 0.57 0.59 0.58 0.56 0.51 0.44 0.41 0.44
0.43 0.45 0.45 0.46 0.45 0.43 0.40 0.37 0.34 0.33 0.39 0.48 0.56 0.60 0.60 0.57 0.55 0.52 0.50 0.50 0.47 0.45 0.44 0.42 0.44 0.49 0.55 0.56 0.56 0.47 0.46 0.51 0.52 0.49 0.47 0.43 0.40 0.43
0.27 0.31 0.31 0.31 0.30 0.30 0.27 0.25 0.24 0.26 0.28 0.30 0.37 0.46 0.57 0.67 0.67 0.60 0.55 0.53 0.50 0.45 0.42 0.38 0.34 0.32 0.35 0.37 0.37 0.36 0.38 0.42 0.43 0.41 0.39 0.38 0.37 0.40
0.10 0.13 0.13 0.13 0.16 0.16 0.15 0.15 0.17 0.19 0.22 0.22 0.24 0.27 0.34 0.46 0.56 0.61 0.63 0.68 0.66 0.60 0.55 0.50 0.44 0.43 0.35 0.33 0.31 0.27 0.28 0.30 0.31 0.29 0.28 0.30 0.31 0.30
0.05 0.06 0.06 0.06 0.08 0.09 0.08 0.08 0.09 0.11 0.14 0.15 0.16 0.18 0.21 0.26 0.33 0.42 0.47 0.51 0.55 0.57 0.59 0.60 0.57 0.55 0.49 0.43 0.36 0.30 0.27 0.28 0.31 0.34 0.30 0.27 0.25 0.24
0.04 0.05 0.05 0.05 0.06 0.08 0.12 0.13 0.10 0.08 0.10 0.12 0.14 0.14 0.15 0.17 0.20 0.25 0.30 0.34 0.38 0.41 0.45 0.47 0.46 0.44 0.43 0.42 0.42 0.40 0.35 0.32 0.31 0.32 0.31 0.36 0.33 0.25

GEFSNE_prec_meanprecacc_114.txt.gz
Total_Precipitation_Accumulation
1.93 1.97 1.94 1.99 1.88 1.72 1.67 1.71 1.79 1.57 1.38 1.17 0.94 0.80 0.82 0.80 0.85 0.72 0.64 0.64 0.55 0.46 0.41 0.35 0.30 0.30 0.32 0.39 0.45 0.48 0.53 0.63 0.93 1.19 1.01 0.84 0.75 0.80
1.66 1.70 1.74 1.80 1.86 1.85 1.80 1.72 1.67 1.60 1.50 1.31 1.03 0.78 0.85 0.88 0.93 0.78 0.75 0.82 0.67 0.53 0.43 0.38 0.34 0.29 0.27 0.28 0.28 0.26 0.28 0.35 0.57 1.06 1.14 0.98 0.93 1.00
1.44 1.45 1.56 1.62 1.80 1.86 1.83 1.76 1.71 1.62 1.48 1.39 1.13 0.87 0.83 0.89 0.92 0.85 0.85 0.81 0.69 0.60 0.51 0.46 0.40 0.37 0.33 0.31 0.30 0.26 0.22 0.22 0.25 0.41 0.61 0.69 0.84 1.04
1.24 1.25 1.34 1.42 1.56 1.71 1.79 1.69 1.68 1.63 1.60 1.54 1.30 1.06 0.95 0.93 0.91 0.87 0.79 0.77 0.77 0.72 0.62 0.54 0.50 0.47 0.43 0.38 0.35 0.31 0.29 0.27 0.25 0.26 0.35 0.46 0.56 0.69
1.06 1.07 1.12 1.18 1.28 1.41 1.54 1.63 1.63 1.58 1.67 1.64 1.42 1.16 1.00 0.93 0.93 0.90 0.85 0.87 0.81 0.78 0.72 0.64 0.58 0.51 0.47 0.46 0.45 0.41 0.36 0.33 0.32 0.33 0.35 0.40 0.47 0.51
0.84 0.84 0.89 0.90 0.97 1.11 1.26 1.40 1.54 1.65 1.73 1.73 1.58 1.29 1.08 1.00 0.97 1.00 1.02 0.93 0.92 0.84 0.83 0.79 0.77 0.72 0.64 0.57 0.51 0.46 0.43 0.42 0.40 0.38 0.38 0.37 0.36 0.37
0.85 0.76 0.71 0.71 0.78 0.88 0.98 1.21 1.39 1.54 1.67 1.70 1.63 1.45 1.25 1.16 1.05 0.97 1.03 1.10 1.12 1.01 0.98 0.90 0.84 0.73 0.65 0.59 0.52 0.46 0.40 0.37 0.34 0.32 0.30 0.28 0.27 0.27
0.83 0.83 0.83 0.77 0.67 0.61 0.65 0.81 1.03 1.24 1.40 1.50 1.51 1.40 1.24 1.17 1.20 1.15 1.05 1.05 1.14 1.06 1.05 1.13 1.04 0.90 0.79 0.68 0.62 0.56 0.48 0.42 0.39 0.36 0.33 0.33 0.34 0.33
0.79 0.80 0.84 0.84 0.86 0.75 0.67 0.65 0.70 0.87 1.08 1.25 1.28 1.23 1.29 1.23 1.17 1.11 1.03 0.97 0.95 0.95 0.96 1.07 1.06 0.97 0.85 0.82 0.83 0.73 0.66 0.58 0.52 0.49 0.43 0.38 0.36 0.35
0.85 0.86 0.89 0.92 0.90 1.00 0.96 0.87 0.82 0.83 0.93 0.84 0.93 1.17 1.25 1.25 1.24 1.25 1.22 1.10 0.99 0.92 0.87 0.93 0.93 0.89 0.80 0.75 0.79 0.72 0.65 0.59 0.55 0.53 0.52 0.50 0.47 0.46
0.82 0.81 0.86 0.87 1.05 1.11 1.02 1.00 0.94 0.91 1.06 1.06 1.04 1.07 1.11 1.11 1.12 1.20 1.23 1.15 1.10 0.99 0.85 0.77 0.78 0.83 0.85 0.78 0.77 0.78 0.71 0.66 0.63 0.62 0.61 0.61 0.61 0.58
0.89 0.83 0.99 0.96 0.97 0.91 0.85 1.03 1.02 0.92 0.85 0.82 0.83 0.86 0.86 0.90 0.97 1.00 1.10 1.07 0.99 0.99 0.85 0.75 0.74 0.78 0.81 0.76 0.69 0.67 0.68 0.72 0.71 0.69 0.69 0.69 0.68 0.62
0.91 0.92 0.88 0.97 0.80 0.74 0.77 0.90 1.04 0.98 0.93 0.95 0.89 0.83 0.79 0.80 0.77 0.81 0.92 0.97 0.96 0.94 0.81 0.72 0.73 0.72 0.65 0.61 0.61 0.57 0.52 0.52 0.54 0.56 0.59 0.62 0.64 0.60
0.81 0.73 0.71 0.77 0.62 0.57 0.56 0.67 0.83 0.85 0.84 0.91 0.89 0.84 0.78 0.74 0.71 0.69 0.73 0.79 0.81 0.81 0.79 0.73 0.72 0.69 0.63 0.51 0.49 0.49 0.48 0.46 0.44 0.45 0.44 0.52 0.55 0.57
0.61 0.61 0.53 0.49 0.48 0.44 0.46 0.54 0.59 0.71 0.84 0.87 0.78 0.72 0.74 0.76 0.74 0.70 0.65 0.64 0.66 0.64 0.61 0.59 0.63 0.69 0.68 0.57 0.48 0.45 0.46 0.45 0.41 0.41 0.43 0.43 0.42 0.44
0.39 0.33 0.32 0.34 0.39 0.41 0.41 0.42 0.48 0.65 0.81 0.80 0.73 0.68 0.70 0.73 0.77 0.77 0.73 0.66 0.65 0.65 0.60 0.56 0.58 0.62 0.62 0.58 0.53 0.47 0.46 0.47 0.44 0.44 0.45 0.45 0.43 0.40
0.51 0.43 0.36 0.34 0.35 0.38 0.40 0.45 0.57 0.67 0.74 0.67 0.66 0.62 0.64 0.70 0.75 0.77 0.79 0.75 0.69 0.66 0.70 0.71 0.69 0.68 0.65 0.63 0.62 0.58 0.56 0.54 0.53 0.52 0.50 0.47 0.45 0.42
0.50 0.51 0.50 0.50 0.50 0.49 0.46 0.43 0.44 0.52 0.58 0.63 0.62 0.60 0.59 0.58 0.59 0.63 0.67 0.68 0.65 0.62 0.60 0.62 0.68 0.74 0.73 0.68 0.60 0.55 0.61 0.63 0.62 0.60 0.55 0.49 0.46 0.48
0.43 0.45 0.45 0.46 0.45 0.43 0.40 0.37 0.34 0.34 0.41 0.49 0.57 0.62 0.62 0.59 0.57 0.54 0.53 0.53 0.51 0.49 0.48 0.46 0.49 0.53 0.59 0.60 0.59 0.50 0.48 0.55 0.56 0.54 0.51 0.47 0.43 0.46
0.27 0.32 0.31 0.31 0.30 0.30 0.28 0.25 0.24 0.26 0.28 0.30 0.37 0.47 0.58 0.68 0.69 0.63 0.58 0.56 0.54 0.49 0.46 0.42 0.39 0.38 0.41 0.43 0.41 0.39 0.40 0.44 0.46 0.45 0.43 0.43 0.41 0.44
0.10 0.13 0.13 0.14 0.16 0.16 0.15 0.16 0.17 0.19 0.22 0.23 0.24 0.27 0.35 0.46 0.57 0.62 0.65 0.71 0.69 0.63 0.59 0.55 0.50 0.50 0.43 0.41 0.37 0.31 0.31 0.33 0.34 0.32 0.32 0.34 0.35 0.35
0.05 0.06 0.06 0.06 0.08 0.09 0.08 0.08 0.09 0.12 0.15 0.16 0.17 0.18 0.22 0.27 0.34 0.44 0.48 0.53 0.57 0.59 0.62 0.63 0.61 0.60 0.54 0.49 0.41 0.34 0.31 0.31 0.34 0.37 0.33 0.30 0.28 0.27
0.04 0.05 0.05 0.05 0.06 0.08 0.12 0.14 0.11 0.09 0.11 0.14 0.15 0.16 0.16 0.18 0.21 0.26 0.31 0.36 0.40 0.44 0.48 0.50 0.51 0.49 0.48 0.47 0.46 0.43 0.39 0.35 0.34 0.34 0.33 0.38 0.35 0.27

GEFSNE_prec_meanprecacc_120.txt.gz
Total_Precipitation_Accumulation
1.98 2.03 1.99 2.04 1.93 1.77 1.73 1.80 1.88 1.67 1.50 1.28 1.03 0.87 0.91 0.88 0.92 0.77 0.69 0.69 0.57 0.47 0.43 0.37 0.32 0.32 0.34 0.41 0.48 0.53 0.58 0.68 0.99 1.26 1.08 0.91 0.82 0.87
1.73 1.78 1.81 1.87 1.92 1.89 1.84 1.78 1.74 1.69 1.60 1.40 1.10 0.84 0.90 0.93 1.00 0.83 0.82 0.89 0.71 0.55 0.45 0.40 0.36 0.32 0.29 0.30 0.30 0.28 0.30 0.37 0.60 1.09 1.19 1.04 1.00 1.06
1.48 1.51 1.62 1.68 1.86 1.92 1.89 1.81 1.78 1.71 1.55 1.46 1.21 0.94 0.90 0.95 0.98 0.91 0.91 0.88 0.75 0.64 0.53 0.48 0.42 0.39 0.37 0.33 0.31 0.28 0.24 0.23 0.27 0.44 0.64 0.73 0.89 1.09
1.26 1.27 1.37 1.45 1.60 1.75 1.85 1.76 1.75 1.70 1.67 1.61 1.38 1.14 1.02 0.99 0.98 0.94 0.86 0.83 0.83 0.77 0.65 0.57 0.52 0.49 0.45 0.41 0.37 0.34 0.31 0.29 0.28 0.29 0.38 0.50 0.61 0.74
1.09 1.09 1.14 1.20 1.31 1.44 1.58 1.68 1.68 1.63 1.72 1.69 1.47 1.23 1.08 0.99 0.99 0.97 0.91 0.93 0.87 0.83 0.75 0.66 0.60 0.54 0.49 0.48 0.47 0.43 0.38 0.35 0.35 0.36 0.38 0.43 0.51 0.57
0.88 0.87 0.90 0.93 1.00 1.14 1.28 1.43 1.58 1.69 1.77 1.77 1.61 1.33 1.13 1.05 1.03 1.08 1.09 0.99 0.97 0.89 0.86 0.80 0.79 0.74 0.65 0.58 0.52 0.47 0.44 0.43 0.41 0.39 0.39 0.39 0.38 0.40
0.89 0.79 0.73 0.73 0.81 0.90 1.00 1.24 1.43 1.58 1.71 1.74 1.65 1.48 1.28 1.19 1.09 1.03 1.11 1.19 1.20 1.07 1.03 0.93 0.86 0.75 0.67 0.60 0.53 0.46 0.41 0.37 0.35 0.33 0.31 0.29 0.28 0.29
0.86 0.86 0.85 0.79 0.68 0.62 0.66 0.83 1.06 1.27 1.44 1.53 1.54 1.43 1.28 1.21 1.25 1.21 1.12 1.13 1.22 1.12 1.09 1.17 1.07 0.93 0.82 0.70 0.64 0.56 0.48 0.43 0.40 0.37 0.35 0.34 0.35 0.35
0.82 0.83 0.87 0.85 0.87 0.76 0.68 0.66 0.72 0.89 1.10 1.28 1.31 1.27 1.34 1.28 1.21 1.15 1.07 1.02 1.01 1.02 1.03 1.12 1.10 1.00 0.88 0.84 0.84 0.74 0.67 0.59 0.53 0.50 0.45 0.39 0.37 0.36
0.88 0.89 0.92 0.95 0.92 1.01 0.98 0.89 0.84 0.84 0.94 0.86 0.96 1.21 1.28 1.28 1.27 1.28 1.26 1.14 1.04 0.99 0.93 0.98 0.97 0.92 0.82 0.77 0.81 0.74 0.66 0.60 0.57 0.54 0.54 0.52 0.49 0.47
0.84 0.83 0.88 0.91 1.09 1.13 1.05 1.03 0.97 0.93 1.07 1.07 1.07 1.10 1.14 1.13 1.14 1.22 1.26 1.19 1.14 1.04 0.90 0.81 0.81 0.86 0.87 0.80 0.79 0.80 0.73 0.67 0.64 0.64 0.63 0.63 0.63 0.60
0.91 0.86 1.01 0.97 0.99 0.93 0.88 1.08 1.06 0.96 0.88 0.84 0.85 0.89 0.90 0.94 0.99 1.02 1.13 1.11 1.03 1.03 0.89 0.80 0.79 0.83 0.86 0.79 0.71 0.70 0.71 0.74 0.73 0.71 0.72 0.72 0.71 0.65
0.92 0.94 0.91 0.97 0.80 0.75 0.79 0.94 1.09 1.02 0.96 0.98 0.93 0.87 0.85 0.84 0.80 0.84 0.95 1.00 1.00 0.97 0.84 0.76 0.78 0.78 0.72 0.66 0.65 0.61 0.55 0.56 0.56 0.58 0.61 0.65 0.69 0.65
0.81 0.74 0.72 0.78 0.63 0.57 0.56 0.68 0.85 0.88 0.88 0.95 0.93 0.87 0.82 0.78 0.75 0.73 0.78 0.84 0.85 0.84 0.83 0.78 0.76 0.75 0.69 0.57 0.54 0.54 0.53 0.51 0.49 0.49 0.46 0.55 0.58 0.61
0.62 0.61 0.53 0.49 0.48 0.44 0.46 0.54 0.60 0.73 0.87 0.90 0.81 0.75 0.77 0.80 0.78 0.73 0.68 0.68 0.69 0.68 0.65 0.64 0.69 0.75 0.74 0.63 0.54 0.53 0.53 0.52 0.47 0.45 0.46 0.45 0.44 0.46
0.40 0.33 0.32 0.34 0.40 0.42 0.42 0.43 0.49 0.67 0.84 0.83 0.76 0.71 0.73 0.76 0.80 0.80 0.76 0.69 0.68 0.68 0.63 0.60 0.63 0.68 0.68 0.62 0.58 0.53 0.54 0.53 0.49 0.48 0.49 0.48 0.45 0.42
0.52 0.44 0.37 0.35 0.36 0.40 0.41 0.46 0.58 0.69 0.76 0.70 0.69 0.66 0.66 0.72 0.77 0.80 0.82 0.78 0.71 0.68 0.72 0.74 0.74 0.73 0.70 0.68 0.66 0.62 0.61 0.59 0.57 0.57 0.54 0.51 0.47 0.45
0.51 0.52 0.51 0.51 0.51 0.50 0.47 0.43 0.45 0.52 0.59 0.64 0.63 0.62 0.60 0.59 0.60 0.65 0.69 0.71 0.68 0.65 0.63 0.65 0.72 0.79 0.78 0.73 0.64 0.59 0.65 0.67 0.66 0.65 0.59 0.52 0.48 0.50
0.44 0.46 0.46 0.46 0.46 0.43 0.40 0.38 0.34 0.34 0.41 0.50 0.59 0.64 0.64 0.62 0.58 0.56 0.55 0.55 0.53 0.52 0.51 0.50 0.54 0.59 0.64 0.64 0.63 0.53 0.52 0.59 0.61 0.58 0.55 0.50 0.45 0.48
0.27 0.32 0.32 0.31 0.31 0.31 0.28 0.26 0.25 0.27 0.29 0.31 0.39 0.49 0.61 0.70 0.71 0.64 0.59 0.58 0.56 0.51 0.49 0.45 0.43 0.43 0.46 0.47 0.45 0.43 0.43 0.47 0.50 0.49 0.47 0.47 0.44 0.47
0.10 0.13 0.14 0.14 0.17 0.17 0.16 0.16 0.17 0.20 0.22 0.23 0.25 0.28 0.36 0.47 0.58 0.64 0.66 0.72 0.70 0.64 0.61 0.57 0.53 0.54 0.47 0.45 0.41 0.34 0.34 0.36 0.37 0.35 0.36 0.38 0.39 0.38
0.05 0.06 0.06 0.07 0.09 0.10 0.09 0.09 0.10 0.12 0.15 0.16 0.17 0.19 0.22 0.27 0.35 0.44 0.49 0.54 0.58 0.61 0.63 0.65 0.63 0.62 0.57 0.53 0.45 0.37 0.35 0.35 0.37 0.40 0.36 0.34 0.31 0.30
0.04 0.05 0.05 0.05 0.06 0.08 0.13 0.14 0.11 0.10 0.11 0.14 0.16 0.16 0.17 0.19 0.21 0.26 0.32 0.36 0.41 0.45 0.49 0.52 0.52 0.50 0.50 0.49 0.49 0.46 0.41 0.38 0.38 0.37 0.35 0.41 0.38 0.29

GEFSNE_prec_meanprecacc_126.txt.gz
Total_Precipitation_Accumulation
2.02 2.07 2.04 2.07 1.95 1.80 1.76 1.83 1.91 1.70 1.54 1.35 1.14 0.96 1.01 0.98 1.02 0.86 0.77 0.77 0.64 0.52 0.47 0.41 0.36 0.36 0.37 0.44 0.51 0.56 0.63 0.76 1.07 1.35 1.18 1.02 0.92 0.96
1.77 1.82 1.85 1.91 1.94 1.92 1.87 1.83 1.78 1.72 1.63 1.44 1.16 0.91 0.97 1.02 1.10 0.92 0.88 0.97 0.79 0.61 0.50 0.44 0.40 0.35 0.32 0.32 0.32 0.31 0.32 0.39 0.63 1.14 1.24 1.09 1.05 1.13
1.53 1.56 1.66 1.72 1.89 1.94 1.91 1.84 1.83 1.74 1.58 1.49 1.24 1.02 1.00 1.04 1.08 1.00 0.99 0.96 0.82 0.72 0.60 0.53 0.46 0.43 0.40 0.36 0.34 0.30 0.26 0.25 0.29 0.46 0.67 0.77 0.92 1.13
1.30 1.30 1.40 1.49 1.62 1.77 1.88 1.79 1.79 1.74 1.70 1.64 1.41 1.19 1.10 1.07 1.07 1.03 0.94 0.93 0.92 0.85 0.70 0.61 0.56 0.52 0.48 0.43 0.40 0.37 0.35 0.32 0.31 0.32 0.41 0.53 0.63 0.78
1.10 1.10 1.15 1.22 1.33 1.47 1.61 1.71 1.70 1.66 1.75 1.72 1.50 1.26 1.14 1.08 1.08 1.05 0.98 1.00 0.94 0.90 0.81 0.70 0.64 0.58 0.53 0.51 0.49 0.45 0.40 0.38 0.37 0.39 0.41 0.46 0.54 0.59
0.90 0.88 0.91 0.94 1.01 1.16 1.29 1.45 1.60 1.71 1.80 1.80 1.62 1.34 1.16 1.11 1.11 1.16 1.16 1.05 1.04 0.95 0.92 0.85 0.83 0.78 0.68 0.61 0.55 0.50 0.46 0.45 0.43 0.42 0.42 0.42 0.41 0.43
0.90 0.81 0.74 0.74 0.82 0.91 1.01 1.26 1.44 1.59 1.73 1.78 1.68 1.49 1.29 1.21 1.13 1.11 1.19 1.28 1.26 1.12 1.07 0.97 0.89 0.78 0.70 0.63 0.56 0.48 0.42 0.39 0.36 0.35 0.33 0.32 0.31 0.32
0.87 0.87 0.86 0.81 0.69 0.64 0.68 0.84 1.07 1.28 1.45 1.55 1.57 1.44 1.29 1.23 1.27 1.24 1.19 1.22 1.30 1.18 1.16 1.23 1.12 0.96 0.84 0.72 0.66 0.59 0.50 0.44 0.41 0.38 0.35 0.35 0.37 0.37
0.84 0.84 0.88 0.86 0.88 0.77 0.70 0.68 0.73 0.90 1.12 1.30 1.33 1.29 1.35 1.29 1.23 1.17 1.10 1.07 1.08 1.11 1.12 1.19 1.16 1.05 0.91 0.86 0.87 0.76 0.69 0.60 0.54 0.50 0.45 0.40 0.38 0.37
0.90 0.91 0.93 0.97 0.94 1.02 0.99 0.90 0.85 0.85 0.95 0.87 0.97 1.22 1.30 1.29 1.28 1.30 1.28 1.16 1.07 1.04 1.00 1.04 1.03 0.97 0.86 0.81 0.85 0.77 0.69 0.63 0.59 0.55 0.55 0.52 0.50 0.48
0.86 0.86 0.90 0.93 1.12 1.15 1.06 1.04 0.98 0.94 1.08 1.08 1.08 1.12 1.15 1.14 1.15 1.23 1.27 1.20 1.15 1.05 0.94 0.85 0.85 0.91 0.92 0.84 0.82 0.84 0.76 0.70 0.66 0.65 0.64 0.64 0.64 0.62
0.92 0.88 1.03 0.99 1.00 0.94 0.90 1.09 1.07 0.97 0.88 0.85 0.87 0.91 0.92 0.96 1.00 1.03 1.14 1.13 1.05 1.04 0.91 0.82 0.80 0.86 0.89 0.82 0.74 0.72 0.73 0.76 0.75 0.73 0.74 0.74 0.73 0.66
0.92 0.95 0.92 0.98 0.81 0.76 0.80 0.94 1.10 1.03 0.97 0.99 0.94 0.89 0.87 0.86 0.81 0.85 0.96 1.02 1.02 0.99 0.86 0.78 0.79 0.80 0.74 0.68 0.68 0.63 0.57 0.58 0.59 0.60 0.62 0.67 0.71 0.66
0.81 0.74 0.73 0.79 0.64 0.58 0.57 0.69 0.86 0.89 0.89 0.96 0.94 0.88 0.83 0.80 0.76 0.75 0.80 0.86 0.87 0.86 0.85 0.79 0.78 0.76 0.70 0.58 0.55 0.56 0.55 0.53 0.51 0.51 0.48 0.57 0.60 0.63
0.62 0.61 0.54 0.50 0.49 0.45 0.47 0.55 0.60 0.74 0.88 0.92 0.84 0.78 0.79 0.81 0.80 0.75 0.70 0.70 0.71 0.69 0.66 0.65 0.70 0.77 0.75 0.64 0.55 0.54 0.55 0.55 0.50 0.48 0.49 0.49 0.48 0.51
0.40 0.34 0.32 0.35 0.41 0.43 0.43 0.44 0.50 0.68 0.84 0.85 0.78 0.73 0.74 0.77 0.81 0.81 0.77 0.71 0.69 0.69 0.64 0.61 0.64 0.69 0.69 0.63 0.59 0.54 0.55 0.55 0.51 0.52 0.53 0.52 0.50 0.47
0.52 0.44 0.37 0.35 0.37 0.40 0.41 0.46 0.59 0.69 0.77 0.71 0.70 0.67 0.68 0.74 0.78 0.81 0.84 0.80 0.73 0.70 0.73 0.75 0.74 0.73 0.71 0.69 0.67 0.63 0.62 0.60 0.58 0.59 0.57 0.53 0.50 0.48
0.51 0.52 0.51 0.51 0.51 0.50 0.47 0.43 0.45 0.52 0.59 0.64 0.64 0.63 0.61 0.60 0.61 0.65 0.70 0.72 0.70 0.68 0.65 0.67 0.73 0.79 0.78 0.74 0.65 0.61 0.66 0.68 0.67 0.66 0.60 0.54 0.50 0.53
0.44 0.46 0.46 0.46 0.46 0.43 0.40 0.38 0.34 0.34 0.41 0.50 0.59 0.64 0.65 0.62 0.59 0.56 0.55 0.55 0.54 0.53 0.52 0.52 0.55 0.60 0.65 0.65 0.64 0.55 0.53 0.60 0.63 0.60 0.58 0.53 0.47 0.51
0.27 0.32 0.32 0.31 0.31 0.31 0.28 0.26 0.25 0.27 0.29 0.31 0.39 0.49 0.61 0.71 0.71 0.65 0.60 0.58 0.56 0.51 0.49 0.45 0.44 0.43 0.47 0.48 0.46 0.44 0.44 0.48 0.51 0.50 0.48 0.48 0.46 0.49
0.10 0.13 0.14 0.14 0.17 0.17 0.16 0.16 0.18 0.20 0.23 0.23 0.25 0.28 0.36 0.48 0.59 0.65 0.67 0.73 0.71 0.65 0.61 0.57 0.53 0.55 0.48 0.46 0.42 0.35 0.34 0.37 0.38 0.37 0.37 0.40 0.41 0.40
0.05 0.06 0.06 0.07 0.09 0.10 0.09 0.09 0.10 0.12 0.15 0.17 0.17 0.19 0.23 0.28 0.36 0.45 0.50 0.55 0.59 0.62 0.64 0.65 0.63 0.62 0.57 0.54 0.46 0.38 0.36 0.36 0.38 0.41 0.38 0.36 0.34 0.32
0.04 0.05 0.05 0.05 0.06 0.08 0.13 0.14 0.11 0.10 0.11 0.14 0.16 0.16 0.17 0.19 0.22 0.27 0.32 0.37 0.42 0.46 0.50 0.53 0.53 0.51 0.50 0.50 0.49 0.47 0.42 0.39 0.39 0.38 0.37 0.42 0.40 0.31